Overview Statistics Trail Chart Weather Telemetry Raw packets
 

This is the latest recevied weather packets stored in our database for station/object 9W2XPF-13. If no packets are shown the sender has not sent any weather packets the latest 10 day(s).

<< 130 131 132 133 134 135 136 >>
Time Temp. Humidity Pressure Rain* Wind** Luminosity Snow
1777175522 31.11° C 83% 1009.1 hPa 0.25 mm - - -
1777175402 30.56° C 84% 1009.4 hPa 0.25 mm - - -
1777175282 30.56° C 84% 1009.3 hPa 0.25 mm - - -
1777175162 30.56° C 83% 1009.3 hPa 0.25 mm - - -
1777175042 30.56° C 83% 1009.3 hPa 0.25 mm - - -
1777174922 30.56° C 84% 1009.3 hPa 0.25 mm - - -
1777174802 30.56° C 84% 1009.6 hPa 0.25 mm - - -
1777174682 30.56° C 85% 1009.5 hPa 0.25 mm - - -
1777174562 30.56° C 85% 1009.6 hPa 0.25 mm - - -
1777174442 30° C 87% 1009.5 hPa 0.25 mm - - -
1777174322 30° C 89% 1009.6 hPa 0.25 mm - - -
1777174202 30° C 88% 1009.5 hPa 0.25 mm - - -
1777174082 29.44° C 88% 1009.7 hPa 0.25 mm - - -
1777173962 29.44° C 87% 1009.7 hPa 0.25 mm - - -
1777173842 30° C 86% 1009.8 hPa 0.25 mm - - -
1777173722 30° C 85% 1009.7 hPa 0.25 mm - - -
1777173602 30.56° C 85% 1009.8 hPa 0 mm - - -
1777173482 30.56° C 83% 1009.9 hPa 0 mm - - -
1777173362 31.11° C 81% 1009.8 hPa 0 mm - - -
1777173242 31.11° C 78% 1009.8 hPa 0 mm - - -
1777173122 31.67° C 78% 1009.6 hPa 0 mm - - -
1777173002 31.67° C 76% 1009.7 hPa 0 mm - - -
1777172882 32.22° C 75% 1009.6 hPa 0 mm - - -
1777172762 32.22° C 74% 1009.8 hPa 0 mm - - -
1777172642 32.22° C 75% 1009.7 hPa 0 mm - - -

* Rain latest hour (hover to see other rain measurements)
** Current wind speed in m/s (hover to see current wind gust speed)